N179LJ MPTO-MROC

Flight info

Callsign N179LJ
Flight time 0h 54m
Altitude 32000
Route PUDOS DCT ISEBA CUARE3I
Aircraft B753/M-SDE2E3FGHIJ3J4J7RWXY/LB1

Departure

Time 2026-05-05 02:55
Airport Tocumen International Airport (MPTO)

Arrival

Time 2026-05-05 03:49
Airport Juan Santamaría International Airport (MROC)
Time Latitude Longitude Altitude Speed Heading
2026-05-05 02:40 9.06439 -79.38670 55 ft 0 kts 335°
2026-05-05 02:44 9.06433 -79.38667 55 ft 3 kts 336°
2026-05-05 02:44 9.06414 -79.38657 54 ft 2 kts 320°
2026-05-05 02:44 9.06402 -79.38641 54 ft 2 kts 291°
2026-05-05 02:44 9.06400 -79.38626 54 ft 2 kts 253°
2026-05-05 02:45 9.06408 -79.38614 54 ft 1 kts 215°
2026-05-05 02:45 9.06414 -79.38610 54 ft 2 kts 204°
2026-05-05 02:45 9.06428 -79.38605 55 ft 2 kts 194°
2026-05-05 02:45 9.06438 -79.38603 55 ft 0 kts 195°
2026-05-05 02:46 9.06444 -79.38601 55 ft 0 kts 208°
2026-05-05 02:48 9.06425 -79.38612 55 ft 5 kts 208°
2026-05-05 02:48 9.06383 -79.38630 53 ft 7 kts 196°
2026-05-05 02:48 9.06324 -79.38638 51 ft 9 kts 180°
2026-05-05 02:49 9.06258 -79.38639 50 ft 9 kts 183°
2026-05-05 02:49 9.06191 -79.38648 48 ft 10 kts 193°
2026-05-05 02:49 9.06109 -79.38683 47 ft 14 kts 210°
2026-05-05 02:49 9.06016 -79.38736 45 ft 15 kts 210°
2026-05-05 02:50 9.05925 -79.38788 44 ft 14 kts 210°
2026-05-05 02:50 9.05833 -79.38841 41 ft 15 kts 210°
2026-05-05 02:50 9.05746 -79.38891 41 ft 13 kts 210°
2026-05-05 02:50 9.05666 -79.38937 41 ft 12 kts 210°
2026-05-05 02:51 9.05589 -79.38982 40 ft 12 kts 210°
2026-05-05 02:51 9.05512 -79.39027 38 ft 12 kts 210°
2026-05-05 02:51 9.05434 -79.39071 37 ft 12 kts 209°
2026-05-05 02:51 9.05356 -79.39114 35 ft 12 kts 209°
2026-05-05 02:52 9.05282 -79.39157 35 ft 11 kts 210°
2026-05-05 02:52 9.05214 -79.39196 35 ft 10 kts 210°
2026-05-05 02:52 9.05143 -79.39237 35 ft 12 kts 210°
2026-05-05 02:52 9.05063 -79.39282 34 ft 13 kts 209°
2026-05-05 02:53 9.04975 -79.39331 34 ft 15 kts 208°
2026-05-05 02:53 9.04886 -79.39378 34 ft 10 kts 196°
2026-05-05 02:53 9.04824 -79.39352 34 ft 10 kts 121°
2026-05-05 02:53 9.04789 -79.39281 33 ft 12 kts 94°
2026-05-05 02:54 9.04842 -79.39214 32 ft 14 kts 31°
2026-05-05 02:54 9.05017 -79.39114 33 ft 48 kts 29°
2026-05-05 02:54 9.05511 -79.38836 38 ft 112 kts 29°
2026-05-05 02:54 9.06380 -79.38352 55 ft 170 kts 28°
2026-05-05 02:55 9.07495 -79.37713 451 ft 190 kts 31°
2026-05-05 02:55 9.08668 -79.36968 1018 ft 211 kts 32°
2026-05-05 02:55 9.09894 -79.36182 2070 ft 206 kts 31°
2026-05-05 02:55 9.11135 -79.35401 2588 ft 225 kts 31°
2026-05-05 02:56 9.12515 -79.34547 3124 ft 242 kts 31°
2026-05-05 02:56 9.13969 -79.33689 3982 ft 244 kts 23°
2026-05-05 02:56 9.15634 -79.33389 4731 ft 252 kts 354°
2026-05-05 02:56 9.17313 -79.34010 5374 ft 268 kts 326°
2026-05-05 02:57 9.18560 -79.35457 6036 ft 283 kts 296°
2026-05-05 02:57 9.18999 -79.37393 6844 ft 291 kts 269°
2026-05-05 02:57 9.18519 -79.39408 7559 ft 300 kts 243°
2026-05-05 02:57 9.17441 -79.41232 8328 ft 304 kts 238°
2026-05-05 02:58 9.16328 -79.43052 9080 ft 308 kts 239°
2026-05-05 02:58 9.15197 -79.44910 9820 ft 312 kts 238°
2026-05-05 02:58 9.14151 -79.46842 10431 ft 321 kts 248°
2026-05-05 02:58 9.13478 -79.49046 10712 ft 341 kts 259°
2026-05-05 02:59 9.13108 -79.51469 11051 ft 358 kts 264°
2026-05-05 02:59 9.12874 -79.54006 11747 ft 362 kts 266°
2026-05-05 02:59 9.12706 -79.56531 12380 ft 367 kts 267°
2026-05-05 02:59 9.12583 -79.59119 13052 ft 370 kts 268°
2026-05-05 03:00 9.12483 -79.61725 13640 ft 376 kts 268°
2026-05-05 03:00 9.12396 -79.64395 14310 ft 378 kts 268°
2026-05-05 03:00 9.12316 -79.67062 14952 ft 382 kts 268°
2026-05-05 03:00 9.12240 -79.69749 15497 ft 387 kts 268°
2026-05-05 03:01 9.12165 -79.72461 16125 ft 389 kts 268°
2026-05-05 03:01 9.12091 -79.75199 16700 ft 392 kts 268°
2026-05-05 03:01 9.12015 -79.77970 17276 ft 397 kts 268°
2026-05-05 03:01 9.11940 -79.80776 17844 ft 400 kts 269°
2026-05-05 03:02 9.11864 -79.83547 18579 ft 397 kts 269°
2026-05-05 03:02 9.11788 -79.86344 19106 ft 400 kts 269°
2026-05-05 03:02 9.11711 -79.89172 19746 ft 400 kts 269°
2026-05-05 03:02 9.11635 -79.91969 20349 ft 400 kts 269°
2026-05-05 03:03 9.11559 -79.94758 20910 ft 401 kts 269°
2026-05-05 03:03 9.11482 -79.97593 21475 ft 401 kts 270°
2026-05-05 03:03 9.11404 -80.00402 22039 ft 401 kts 270°
2026-05-05 03:03 9.11327 -80.03224 22579 ft 402 kts 270°
2026-05-05 03:04 9.11249 -80.06050 22935 ft 408 kts 270°
2026-05-05 03:04 9.11171 -80.08910 23386 ft 411 kts 270°
2026-05-05 03:04 9.11091 -80.11799 23795 ft 415 kts 270°
2026-05-05 03:04 9.11010 -80.14719 24229 ft 418 kts 270°
2026-05-05 03:05 9.10927 -80.17683 24649 ft 421 kts 270°
2026-05-05 03:05 9.10844 -80.20650 25073 ft 424 kts 270°
2026-05-05 03:05 9.10761 -80.23620 25467 ft 428 kts 270°
2026-05-05 03:05 9.10675 -80.26633 25875 ft 431 kts 270°
2026-05-05 03:06 9.10589 -80.29691 26260 ft 435 kts 270°
2026-05-05 03:06 9.10503 -80.32742 26639 ft 438 kts 270°
2026-05-05 03:06 9.10415 -80.35832 27024 ft 441 kts 270°
2026-05-05 03:06 9.10326 -80.38946 27379 ft 445 kts 270°
2026-05-05 03:07 9.10237 -80.42063 27758 ft 448 kts 270°
2026-05-05 03:07 9.10146 -80.45252 28133 ft 450 kts 270°
2026-05-05 03:07 9.10055 -80.48399 28457 ft 454 kts 270°
2026-05-05 03:07 9.09964 -80.51587 28806 ft 457 kts 269°
2026-05-05 03:08 9.09872 -80.54789 29169 ft 459 kts 269°
2026-05-05 03:08 9.09778 -80.58034 29538 ft 461 kts 269°
2026-05-05 03:08 9.09682 -80.61318 29832 ft 465 kts 269°
2026-05-05 03:08 9.09588 -80.64548 30190 ft 467 kts 269°
2026-05-05 03:09 9.09491 -80.67844 30476 ft 470 kts 269°
2026-05-05 03:09 9.09393 -80.71174 30773 ft 472 kts 269°
2026-05-05 03:09 9.09295 -80.74496 31073 ft 474 kts 268°
2026-05-05 03:09 9.09197 -80.77812 31561 ft 471 kts 268°
2026-05-05 03:10 9.09100 -80.81107 31912 ft 468 kts 268°
2026-05-05 03:10 9.08905 -80.87627 31906 ft 465 kts 268°
2026-05-05 03:11 9.08708 -80.94188 31905 ft 467 kts 268°
2026-05-05 03:11 9.08510 -81.00747 31906 ft 467 kts 268°
2026-05-05 03:12 9.09089 -81.07224 31923 ft 467 kts 284°
2026-05-05 03:12 9.10659 -81.13581 31907 ft 466 kts 284°
2026-05-05 03:13 9.12256 -81.19961 31908 ft 467 kts 284°
2026-05-05 03:13 9.13852 -81.26288 31912 ft 466 kts 284°
2026-05-05 03:14 9.15456 -81.32632 31910 ft 465 kts 284°
2026-05-05 03:14 9.17063 -81.38989 31911 ft 466 kts 284°
2026-05-05 03:15 9.18662 -81.45316 31911 ft 466 kts 284°
2026-05-05 03:15 9.20267 -81.51671 31914 ft 465 kts 284°
2026-05-05 03:16 9.21865 -81.57999 31914 ft 466 kts 284°
2026-05-05 03:16 9.23461 -81.64329 31915 ft 465 kts 284°
2026-05-05 03:17 9.24795 -81.69621 31917 ft 465 kts 284°
2026-05-05 03:17 9.26386 -81.75942 31917 ft 465 kts 284°
2026-05-05 03:18 9.27987 -81.82304 31915 ft 465 kts 284°
2026-05-05 03:18 9.29576 -81.88623 31919 ft 465 kts 284°
2026-05-05 03:19 9.31971 -81.98154 31918 ft 465 kts 284°
2026-05-05 03:19 9.33555 -82.04470 31917 ft 464 kts 284°
2026-05-05 03:20 9.35146 -82.10812 31925 ft 465 kts 284°
2026-05-05 03:20 9.36730 -82.17136 31927 ft 465 kts 284°
2026-05-05 03:21 9.38314 -82.23464 31927 ft 464 kts 284°
2026-05-05 03:21 9.39904 -82.29819 31940 ft 466 kts 284°
2026-05-05 03:22 9.41481 -82.36128 31942 ft 464 kts 284°
2026-05-05 03:22 9.43073 -82.42501 31936 ft 465 kts 284°
2026-05-05 03:23 9.44648 -82.48816 31949 ft 465 kts 284°
2026-05-05 03:23 9.46231 -82.55162 31957 ft 465 kts 284°
2026-05-05 03:24 9.47806 -82.61485 31989 ft 465 kts 284°
2026-05-05 03:24 9.49385 -82.67831 32016 ft 466 kts 284°
2026-05-05 03:25 9.50967 -82.74186 32048 ft 465 kts 284°
2026-05-05 03:25 9.52551 -82.80563 32040 ft 466 kts 284°
2026-05-05 03:26 9.54129 -82.86913 32008 ft 466 kts 284°
2026-05-05 03:26 9.54942 -82.90106 31595 ft 469 kts 285°
2026-05-05 03:26 9.55751 -82.93265 31101 ft 461 kts 285°
2026-05-05 03:27 9.56537 -82.96342 30636 ft 453 kts 285°
2026-05-05 03:27 9.57329 -82.99441 30187 ft 448 kts 285°
2026-05-05 03:27 9.58092 -83.02429 29758 ft 442 kts 285°
2026-05-05 03:27 9.58864 -83.05451 29355 ft 436 kts 285°
2026-05-05 03:28 9.59617 -83.08404 28861 ft 432 kts 285°
2026-05-05 03:28 9.60363 -83.11323 28441 ft 427 kts 286°
2026-05-05 03:28 9.61261 -83.14159 28040 ft 420 kts 291°
2026-05-05 03:28 9.62237 -83.16899 27603 ft 411 kts 290°
2026-05-05 03:29 9.63189 -83.19591 27182 ft 405 kts 290°
2026-05-05 03:29 9.64146 -83.22295 26775 ft 405 kts 290°
2026-05-05 03:29 9.65093 -83.24964 26379 ft 408 kts 290°
2026-05-05 03:29 9.66059 -83.27685 25968 ft 407 kts 290°
2026-05-05 03:30 9.67013 -83.30373 25554 ft 404 kts 290°
2026-05-05 03:30 9.67961 -83.33047 25135 ft 399 kts 290°
2026-05-05 03:30 9.68882 -83.35641 24723 ft 394 kts 290°
2026-05-05 03:30 9.69807 -83.38250 24309 ft 391 kts 290°
2026-05-05 03:31 9.70721 -83.40825 23896 ft 389 kts 290°
2026-05-05 03:31 9.71636 -83.43405 23478 ft 387 kts 290°
2026-05-05 03:31 9.72549 -83.45982 23056 ft 384 kts 290°
2026-05-05 03:31 9.73440 -83.48495 22631 ft 381 kts 290°
2026-05-05 03:32 9.74342 -83.51051 22204 ft 378 kts 289°
2026-05-05 03:32 9.74878 -83.53629 21822 ft 376 kts 274°
2026-05-05 03:32 9.74816 -83.56277 21457 ft 377 kts 267°
2026-05-05 03:32 9.74650 -83.58956 21050 ft 378 kts 268°
2026-05-05 03:33 9.74482 -83.61610 20644 ft 377 kts 267°
2026-05-05 03:33 9.74307 -83.64227 20244 ft 374 kts 267°
2026-05-05 03:33 9.74128 -83.66833 19864 ft 371 kts 267°
2026-05-05 03:33 9.73945 -83.69443 19476 ft 371 kts 266°
2026-05-05 03:34 9.73762 -83.72034 19176 ft 369 kts 266°
2026-05-05 03:34 9.73578 -83.74622 18859 ft 369 kts 266°
2026-05-05 03:34 9.73393 -83.77200 18531 ft 369 kts 266°
2026-05-05 03:34 9.73205 -83.79836 17978 ft 373 kts 266°
2026-05-05 03:35 9.73021 -83.82385 17841 ft 359 kts 266°
2026-05-05 03:35 9.72842 -83.84862 17836 ft 342 kts 266°
2026-05-05 03:35 9.72663 -83.87198 17553 ft 335 kts 266°
2026-05-05 03:35 9.72482 -83.89557 17185 ft 337 kts 266°
2026-05-05 03:36 9.72299 -83.91941 16811 ft 339 kts 266°
2026-05-05 03:36 9.72116 -83.94318 16446 ft 338 kts 266°
2026-05-05 03:36 9.71934 -83.96676 16084 ft 336 kts 266°
2026-05-05 03:36 9.71753 -83.99025 15751 ft 333 kts 266°
2026-05-05 03:37 9.71571 -84.01374 15404 ft 333 kts 266°
2026-05-05 03:37 9.71393 -84.03681 15056 ft 333 kts 266°
2026-05-05 03:37 9.71211 -84.06036 14697 ft 334 kts 266°
2026-05-05 03:37 9.71031 -84.08359 14326 ft 333 kts 266°
2026-05-05 03:38 9.70849 -84.10701 13939 ft 330 kts 266°
2026-05-05 03:38 9.70669 -84.13012 13588 ft 328 kts 266°
2026-05-05 03:38 9.70491 -84.15307 13229 ft 328 kts 266°
2026-05-05 03:38 9.70312 -84.17608 12858 ft 326 kts 266°
2026-05-05 03:39 9.70134 -84.19899 12561 ft 325 kts 266°
2026-05-05 03:39 9.70050 -84.22174 12090 ft 325 kts 277°
2026-05-05 03:39 9.70565 -84.24364 11707 ft 315 kts 294°
2026-05-05 03:39 9.70840 -84.25031 11648 ft 312 kts 295°
2026-05-05 03:40 9.71477 -84.26521 11495 ft 310 kts 295°
2026-05-05 03:40 9.72323 -84.28516 11224 ft 314 kts 295°
2026-05-05 03:40 9.73210 -84.30573 10878 ft 316 kts 295°
2026-05-05 03:40 9.74087 -84.32593 10490 ft 314 kts 295°
2026-05-05 03:41 9.74959 -84.34591 10158 ft 306 kts 295°
2026-05-05 03:41 9.75799 -84.36514 10093 ft 289 kts 296°
2026-05-05 03:41 9.76612 -84.38371 10081 ft 289 kts 296°
2026-05-05 03:41 9.77409 -84.40191 10051 ft 279 kts 296°
2026-05-05 03:42 9.78173 -84.41938 9985 ft 263 kts 296°
2026-05-05 03:42 9.78997 -84.43529 9958 ft 251 kts 314°
2026-05-05 03:42 9.80406 -84.44579 9992 ft 256 kts 341°
2026-05-05 03:42 9.82137 -84.45171 9583 ft 267 kts 346°
2026-05-05 03:43 9.83938 -84.45723 9135 ft 272 kts 346°
2026-05-05 03:43 9.85775 -84.46255 8663 ft 276 kts 349°
2026-05-05 03:43 9.87644 -84.46371 8176 ft 266 kts 16°
2026-05-05 03:43 9.89289 -84.45629 7775 ft 251 kts 36°
2026-05-05 03:44 9.90412 -84.44377 7506 ft 238 kts 66°
2026-05-05 03:44 9.91027 -84.42818 7214 ft 238 kts 68°
2026-05-05 03:44 9.91637 -84.41284 6871 ft 231 kts 68°
2026-05-05 03:44 9.92217 -84.39799 6553 ft 222 kts 68°
2026-05-05 03:45 9.92763 -84.38384 6246 ft 213 kts 68°
2026-05-05 03:45 9.93290 -84.37006 5992 ft 201 kts 68°
2026-05-05 03:45 9.93782 -84.35712 5737 ft 194 kts 68°
2026-05-05 03:45 9.94264 -84.34444 5448 ft 190 kts 68°
2026-05-05 03:46 9.94737 -84.33196 5180 ft 186 kts 68°
2026-05-05 03:46 9.95195 -84.31986 4925 ft 182 kts 68°
2026-05-05 03:46 9.95629 -84.30837 4719 ft 167 kts 68°
2026-05-05 03:46 9.96038 -84.29755 4482 ft 158 kts 68°
2026-05-05 03:47 9.96426 -84.28730 4302 ft 154 kts 68°
2026-05-05 03:47 9.96804 -84.27729 4074 ft 150 kts 68°
2026-05-05 03:47 9.97172 -84.26754 3873 ft 147 kts 68°
2026-05-05 03:47 9.97543 -84.25773 3689 ft 148 kts 68°
2026-05-05 03:48 9.97906 -84.24792 3508 ft 149 kts 69°
2026-05-05 03:48 9.98255 -84.23804 3314 ft 150 kts 68°
2026-05-05 03:48 9.98664 -84.22837 3100 ft 149 kts 65°
2026-05-05 03:48 9.99029 -84.21862 2954 ft 142 kts 68°
2026-05-05 03:49 9.99317 -84.21089 2992 ft 92 kts 69°
2026-05-05 03:49 9.99493 -84.20608 3014 ft 53 kts 68°
2026-05-05 03:49 9.99585 -84.20366 3027 ft 29 kts 69°
2026-05-05 03:49 9.99648 -84.20201 3036 ft 14 kts 68°
2026-05-05 03:50 9.99678 -84.20153 3039 ft 5 kts 35°
2026-05-05 03:50 9.99701 -84.20145 3040 ft 2 kts
2026-05-05 03:50 9.99723 -84.20151 3041 ft 5 kts 332°
2026-05-05 03:50 9.99762 -84.20172 3041 ft 6 kts 335°
2026-05-05 03:51 9.99797 -84.20185 3042 ft 4 kts 340°
2026-05-05 03:51 9.99813 -84.20191 3043 ft 0 kts 341°
2026-05-05 03:51 9.99816 -84.20192 3043 ft 0 kts 341°